| time (UTC) | temp F | wind direction | speed MPH | gust MPH | rain 1hr in | rain 24hr in | rain mn in | humidity % | barometer mb |
| 20260505024611 | 71 | 211 | 4.0 | 10.0 | 0.00 | 0.00 | 0.00 | 63 | 1001.8 |
| 20260505023101 | 72 | 194 | 2.0 | 7.0 | 0.00 | 0.00 | 0.00 | 62 | 1001.4 |
| 20260505021556 | 72 | 199 | 2.0 | 7.0 | 0.00 | 0.00 | 0.00 | 61 | 1001.1 |
| 20260505021531 | 72 | 208 | 3.0 | 7.0 | 0.00 | 0.00 | 0.00 | 61 | 1001.1 |
| 20260505020106 | 73 | 209 | 4.0 | 10.0 | 0.00 | 0.00 | 0.00 | 60 | 1000.8 |
| 20260505014554 | 74 | 207 | 3.0 | 7.0 | 0.00 | 0.00 | 0.00 | 60 | 1000.7 |
| 20260505013053 | 74 | 189 | 4.0 | 8.0 | 0.00 | 0.00 | 0.00 | 59 | 1000.7 |
| 20260505011556 | 75 | 202 | 2.0 | 9.0 | 0.00 | 0.00 | 0.00 | 59 | 1000.7 |
| 20260505010108 | 75 | 196 | 5.0 | 12.0 | 0.00 | 0.00 | 0.00 | 57 | 1000.5 |
| 20260505004603 | 76 | 221 | 4.0 | 8.0 | 0.00 | 0.00 | 0.00 | 56 | 1000.4 |
| 20260505003151 | 77 | 197 | 4.0 | 11.0 | 0.00 | 0.00 | 0.00 | 55 | 1000.4 |
| 20260505001550 | 78 | 266 | 4.0 | 9.0 | 0.00 | 0.00 | 0.00 | 54 | 1000.3 |
| 20260504234548 | 79 | 238 | 7.0 | 18.0 | 0.00 | 0.00 | 0.00 | 51 | 1000.2 |
| 20260504233049 | 80 | 207 | 11.0 | 21.0 | 0.00 | 0.00 | 0.00 | 48 | 1000.3 |
| 20260504231618 | 80 | 202 | 8.0 | 17.0 | 0.00 | 0.00 | 0.00 | 50 | 1000.4 |
| 20260504230047 | 81 | 209 | 10.0 | 19.0 | 0.00 | 0.00 | 0.00 | 49 | 1000.5 |
| 20260504224545 | 81 | 226 | 10.0 | 23.0 | 0.00 | 0.00 | 0.00 | 48 | 1000.3 |
| 20260504223047 | 81 | 236 | 9.0 | 18.0 | 0.00 | 0.00 | 0.00 | 49 | 1000.3 |
| 20260504221616 | 81 | 222 | 11.0 | 18.0 | 0.00 | 0.00 | 0.00 | 47 | 1000.4 |
| 20260504220043 | 81 | 232 | 10.0 | 20.0 | 0.00 | 0.00 | 0.00 | 48 | 1000.4 |
| 20260504214542 | 81 | 226 | 15.0 | 26.0 | 0.00 | 0.00 | 0.00 | 48 | 1000.5 |
| 20260504213104 | 81 | 286 | 7.0 | 20.0 | 0.00 | 0.00 | 0.00 | 49 | 1000.5 |
| 20260504211539 | 81 | 232 | 13.0 | 25.0 | 0.00 | 0.00 | 0.00 | 49 | 1000.4 |
| 20260504210045 | 80 | 203 | 11.0 | 21.0 | 0.00 | 0.00 | 0.00 | 51 | 1000.4 |
| 20260504204537 | 80 | 201 | 7.0 | 21.0 | 0.00 | 0.00 | 0.00 | 51 | 1000.5 |
| 20260504203035 | 80 | 242 | 15.0 | 26.0 | 0.00 | 0.00 | 0.00 | 49 | 1000.6 |
| 20260504201534 | 80 | 215 | 8.0 | 21.0 | 0.00 | 0.00 | 0.00 | 51 | 1000.6 |
| 20260504200030 | 79 | 199 | 12.0 | 20.0 | 0.00 | 0.00 | 0.00 | 51 | 1001.1 |
| 20260504194527 | 79 | 202 | 12.0 | 19.0 | 0.00 | 0.00 | 0.00 | 52 | 1001.7 |
| 20260504193025 | 79 | 239 | 9.0 | 15.0 | 0.00 | 0.00 | 0.00 | 52 | 1002.0 |
| 20260504191529 | 77 | 240 | 8.0 | 16.0 | 0.00 | 0.00 | 0.00 | 53 | 1002.4 |
| 20260504190024 | 77 | 205 | 8.0 | 17.0 | 0.00 | 0.00 | 0.00 | 52 | 1002.6 |
| 20260504184538 | 78 | 234 | 12.0 | 21.0 | 0.00 | 0.00 | 0.00 | 51 | 1002.5 |
| 20260504183021 | 78 | 266 | 16.0 | 23.0 | 0.00 | 0.00 | 0.00 | 50 | 1002.5 |
| 20260504181520 | 79 | 242 | 7.0 | 18.0 | 0.00 | 0.00 | 0.00 | 50 | 1002.4 |
| 20260504180020 | 79 | 239 | 13.0 | 22.0 | 0.00 | 0.00 | 0.00 | 49 | 1002.4 |
| 20260504174515 | 78 | 244 | 9.0 | 24.0 | 0.00 | 0.00 | 0.00 | 50 | 1002.7 |
| 20260504173016 | 78 | 253 | 12.0 | 23.0 | 0.00 | 0.00 | 0.00 | 50 | 1002.7 |
| 20260504171512 | 78 | 267 | 11.0 | 23.0 | 0.00 | 0.00 | 0.00 | 50 | 1002.8 |
| 20260504081550 | 63 | 224 | 5.0 | 11.0 | 0.00 | 0.00 | 0.00 | 68 | 1005.2 |
| 20260504050024 | 64 | 212 | 4.0 | 9.0 | 0.00 | 0.00 | 0.00 | 64 | 1006.9 |
| 20260504044523 | 65 | 202 | 5.0 | 9.0 | 0.00 | 0.00 | 0.00 | 64 | 1007.0 |
| 20260504043020 | 65 | 206 | 5.0 | 8.0 | 0.00 | 0.00 | 0.00 | 63 | 1007.1 |
| 20260504041519 | 65 | 188 | 5.0 | 10.0 | 0.00 | 0.00 | 0.00 | 63 | 1007.2 |
| 20260504040019 | 65 | 209 | 5.0 | 10.0 | 0.00 | 0.00 | 0.00 | 63 | 1007.3 |
| 20260504034520 | 65 | 193 | 5.0 | 9.0 | 0.00 | 0.00 | 0.00 | 63 | 1007.3 |
| 20260504033017 | 65 | 215 | 3.0 | 7.0 | 0.00 | 0.00 | 0.00 | 63 | 1007.6 |
| 20260504031517 | 66 | 195 | 2.0 | 7.0 | 0.00 | 0.00 | 0.00 | 63 | 1007.7 |
| 20260504030016 | 66 | 229 | 3.0 | 8.0 | 0.00 | 0.00 | 0.00 | 62 | 1007.7 |